Saint Ignace, MI

6:30 PM EST on February 27, 2017 (GMT -0500)
Mackinac Island

Weather History for KMCD - October, 2013

Change the Weather History Date:

Tuesday, October 22, 2013

  Actual Average Record
Temperature  
Mean Temperature 40 °F -  
Max Temperature 45 °F 48 °F 67 °F (1979)
Min Temperature 34 °F 38 °F 28 °F (1997)
Degree Days  
Heating Degree Days 26    
Moisture  
Dew Point 33 °F    
Average Humidity 77    
Maximum Humidity 90    
Minimum Humidity 57    
Precipitation  
Precipitation 0.00 in - - ()
Sea Level Pressure  
Sea Level Pressure 29.77 in    
Wind  
Wind Speed 14 mph (NW)    
Max Wind Speed 23 mph    
Max Gust Speed 33 mph    
Visibility 10 miles    
Events Rain    
Averages and records for this station are not official NWS values.
T = Trace of Precipitation, MM = Missing Value Source: NWS Daily Summary

Daily Weather History Graph

Daily Weather History Graph

Search for Another Location

Airport or City:

Trip Planner

Search our weather history database for the weather conditions in past years. The results will help you decide how hot, cold, wet, or windy it might be!

Date:

Astronomy

Oct. 22, 2013 Rise Set
Actual Time 8:05 AM EDT 6:40 PM EDT
Civil Twilight 7:34 AM EDT 7:10 PM EDT
Nautical Twilight 6:59 AM EDT 7:45 PM EDT
Astronomical Twilight 6:25 AM EDT 8:19 PM EDT
Moon 9:11 PM EDT (10/22) 11:40 AM EDT (10/22)
Length of Visible Light 11h 35m
Length of Day
10h 34m
Waning Gibbous, 87% of the Moon is Illuminated
Oct 22
Waning Gibbous
Oct 26
Last Quarter
Nov 3
New
Nov 10
First Quarter
Nov 17
Full

Hourly Weather History & Observations

Time (EDT) Temp. Windchill Dew Point Humidity Pressure Visibility Wind Dir Wind Speed Gust Speed Precip Events Conditions
8:25 AM 37.4 °F 27.8 °F 33.8 °F 87% 29.63 in 10.0 mi WNW 17.3 mph 26.5 mph N/A   Mostly Cloudy
8:45 AM 37.4 °F 28.5 °F 33.8 °F 87% 29.64 in 10.0 mi WNW 15.0 mph 27.6 mph N/A   Mostly Cloudy
9:05 AM 37.4 °F 27.8 °F 33.8 °F 87% 29.65 in 10.0 mi WNW 17.3 mph 28.8 mph N/A   Mostly Cloudy
9:25 AM 37.4 °F 28.5 °F 33.8 °F 87% 29.66 in 10.0 mi WNW 15.0 mph 28.8 mph N/A   Mostly Cloudy
9:45 AM 37.4 °F 28.5 °F 33.8 °F 87% 29.67 in 10.0 mi WNW 15.0 mph 27.6 mph N/A   Scattered Clouds
10:25 AM 39.2 °F 28.7 °F 33.8 °F 81% 29.69 in 10.0 mi WNW 23.0 mph 28.8 mph N/A   Mostly Cloudy
10:45 AM 39.2 °F 29.6 °F 33.8 °F 81% 29.69 in 10.0 mi WNW 19.6 mph 28.8 mph N/A   Mostly Cloudy
11:25 AM 41.0 °F 33.1 °F 33.8 °F 76% 29.70 in 10.0 mi NW 15.0 mph 28.8 mph N/A   Mostly Cloudy
11:45 AM 41.0 °F 33.1 °F 33.8 °F 76% 29.70 in 10.0 mi NW 15.0 mph 33.4 mph N/A   Mostly Cloudy
12:05 PM 41.0 °F 33.1 °F 33.8 °F 76% 29.72 in 10.0 mi WNW 15.0 mph 24.2 mph N/A   Mostly Cloudy
12:25 PM 42.8 °F 34.3 °F 32.0 °F 66% 29.72 in 10.0 mi NW 19.6 mph 31.1 mph N/A   Scattered Clouds
12:45 PM 42.8 °F 35.8 °F 32.0 °F 66% 29.73 in 10.0 mi NW 13.8 mph 29.9 mph N/A   Scattered Clouds
1:05 PM 44.6 °F 37.4 °F 32.0 °F 61% 29.74 in 10.0 mi WNW 16.1 mph 27.6 mph N/A   Mostly Cloudy
1:25 PM 44.6 °F 39.2 °F 32.0 °F 61% 29.74 in 10.0 mi NNW 10.4 mph 23.0 mph N/A   Mostly Cloudy
2:05 PM 44.6 °F 37.4 °F 30.2 °F 57% 29.74 in 10.0 mi WNW 16.1 mph 25.3 mph N/A   Mostly Cloudy
2:45 PM 44.6 °F 38.1 °F 32.0 °F 61% 29.74 in 10.0 mi WNW 13.8 mph 26.5 mph N/A   Scattered Clouds
3:05 PM 44.6 °F 38.4 °F 32.0 °F 61% 29.75 in 10.0 mi WNW 12.7 mph 19.6 mph N/A   Clear
3:23 PM 45.5 °F 38.6 °F 33.4 °F 63% 29.75 in 10.0 mi WNW 16.1 mph 23.0 mph N/A   Mostly Cloudy
3:39 PM 44.8 °F 39.4 °F 32.7 °F 63% 29.75 in 10.0 mi WNW 10.4 mph 20.7 mph N/A   Overcast
3:59 PM 43.2 °F 36.6 °F 32.7 °F 67% 29.76 in 10.0 mi West 12.7 mph 19.6 mph N/A   Mostly Cloudy
4:18 PM 42.3 °F 34.8 °F 33.4 °F 71% 29.77 in 7.0 mi WNW 15.0 mph 21.9 mph N/A Rain Light Rain
4:39 PM 41.0 °F 35.8 °F 34.5 °F 78% 29.77 in 10.0 mi West 8.1 mph - N/A   Scattered Clouds
4:59 PM 41.0 °F 33.9 °F 33.3 °F 74% 29.78 in 10.0 mi WNW 12.7 mph 19.6 mph N/A   Scattered Clouds
5:20 PM 41.4 °F 34.7 °F 33.3 °F 73% 29.78 in 10.0 mi WNW 11.5 mph 20.7 mph N/A   Scattered Clouds
5:39 PM 41.9 °F 35.0 °F 33.4 °F 72% 29.79 in 10.0 mi WNW 12.7 mph 18.4 mph N/A   Clear
5:59 PM 41.5 °F 34.6 °F 32.7 °F 71% 29.80 in 10.0 mi WNW 12.7 mph 20.7 mph N/A   Scattered Clouds
6:20 PM 40.3 °F 32.6 °F 31.8 °F 72% 29.81 in 10.0 mi NW 13.8 mph 20.7 mph N/A   Scattered Clouds
6:39 PM 39.7 °F 33.2 °F 31.6 °F 73% 29.82 in 10.0 mi WNW 10.4 mph 17.3 mph N/A   Mostly Cloudy
7:00 PM 39.0 °F 32.3 °F 31.8 °F 75% 29.82 in 10.0 mi NNW 10.4 mph 18.4 mph N/A   Mostly Cloudy
7:19 PM 38.3 °F 32.5 °F 31.5 °F 76% 29.82 in 10.0 mi NW 8.1 mph 18.4 mph N/A   Scattered Clouds
7:39 PM 37.4 °F 30.3 °F 32.0 °F 81% 29.83 in 10.0 mi NNW 10.4 mph 17.3 mph N/A   Scattered Clouds
8:00 PM 37.0 °F 31.6 °F 32.9 °F 85% 29.83 in 10.0 mi NW 6.9 mph 17.3 mph N/A   Scattered Clouds
8:19 PM 36.9 °F 30.7 °F 32.2 °F 83% 29.83 in 10.0 mi WNW 8.1 mph 16.1 mph N/A   Clear
8:39 PM 36.9 °F 30.7 °F 32.0 °F 83% 29.83 in 10.0 mi NW 8.1 mph 16.1 mph N/A   Clear
9:00 PM 36.9 °F 29.6 °F 32.2 °F 83% 29.83 in 10.0 mi NW 10.4 mph 19.6 mph N/A   Scattered Clouds
9:19 PM 36.1 °F 28.7 °F 32.2 °F 86% 29.84 in 10.0 mi NW 10.4 mph 16.1 mph N/A   Scattered Clouds
9:39 PM 35.6 °F 28.0 °F 32.0 °F 87% 29.83 in 10.0 mi NW 10.4 mph 18.4 mph N/A   Clear
10:00 PM 35.6 °F 27.5 °F 32.0 °F 87% 29.84 in 10.0 mi WNW 11.5 mph 18.4 mph N/A   Scattered Clouds
10:19 PM 35.6 °F 27.5 °F 32.0 °F 87% 29.84 in 10.0 mi NW 11.5 mph 18.4 mph N/A   Scattered Clouds
10:39 PM 35.1 °F 26.9 °F 32.0 °F 89% 29.83 in 10.0 mi NW 11.5 mph 19.6 mph N/A   Scattered Clouds
11:00 PM 35.1 °F 27.4 °F 32.0 °F 89% 29.84 in 10.0 mi WNW 10.4 mph 18.4 mph N/A   Scattered Clouds
11:19 PM 35.2 °F 26.2 °F 32.0 °F 88% 29.84 in 10.0 mi WNW 13.8 mph 18.4 mph N/A   Scattered Clouds
11:39 PM 34.9 °F 27.1 °F 32.0 °F 89% 29.84 in 10.0 mi NW 10.4 mph - N/A   Scattered Clouds
11:59 PM 34.7 °F 26.4 °F 32.0 °F 90% 29.84 in 10.0 mi NW 11.5 mph 20.7 mph N/A   Scattered Clouds